GW2490 Weather Reports


time (UTC)temp
C
wind
direction
speed
KPH
gust
KPH
rain 1hr
cm
rain 24hr
cm
rain mn
cm
humidity
%
barometer
mb
20260506135620 -17 0.0 0.0 0.00 0.00 0.00
20260506135458 8 111 12.9 14.5 0.00 0.00 0.00 93 1018.0
20260506135120 -17 0.0 0.0 0.00 0.00 0.00
20260506134957 8 110 14.5 17.7 0.00 0.00 0.00 93 1017.9
20260506134620 -17 0.0 0.0 0.00 0.00 0.00
20260506134458 8 108 12.9 16.1 0.00 0.00 0.00 93 1018.0
20260506134120 -17 0.0 0.0 0.00 0.00 0.00
20260506133958 8 110 12.9 14.5 0.00 0.00 0.00 93 1017.8
20260506133620 -17 0.0 0.0 0.00 0.00 0.00
20260506133458 8 125 9.7 12.9 0.00 0.00 0.00 93 1017.9
20260506133121 -17 0.0 0.0 0.00 0.00 0.00
20260506132958 8 118 11.3 17.7 0.00 0.00 0.00 93 1017.8
20260506132621 -17 0.0 0.0 0.00 0.00 0.00
20260506132458 8 111 14.5 16.1 0.00 0.00 0.00 93 1017.7
20260506132117 -17 0.0 0.0 0.00 0.00 0.00
20260506131957 8 137 9.7 11.3 0.00 0.00 0.00 93 1017.6
20260506131618 -17 0.0 0.0 0.00 0.00 0.00
20260506131457 8 123 11.3 16.1 0.00 0.00 0.00 93 1017.5
20260506131118 -17 0.0 0.0 0.00 0.00 0.00
20260506130957 8 110 14.5 16.1 0.00 0.00 0.00 93 1017.5
20260506130618 -17 0.0 0.0 0.00 0.00 0.00
20260506130500 8 118 12.9 14.5 0.00 0.00 0.00 93 1017.3
20260506130117 -17 0.0 0.0 0.00 0.00 0.00
20260506125957 8 115 14.5 17.7 0.00 0.00 0.00 93 1017.2
20260506125616 -17 0.0 0.0 0.00 0.00 0.00
20260506125457 8 115 14.5 17.7 0.00 0.00 0.00 93 1017.4
20260506125117 -17 0.0 0.0 0.00 0.00 0.00
20260506124958 8 122 11.3 14.5 0.00 0.00 0.00 92 1017.3
20260506124617 -17 0.0 0.0 0.00 0.00 0.00
20260506124457 8 123 12.9 17.7 0.00 0.00 0.00 93 1017.4
20260506124117 -17 0.0 0.0 0.00 0.00 0.00
20260506123957 8 116 14.5 19.3 0.00 0.00 0.00 92 1017.4
20260506123617 -17 0.0 0.0 0.00 0.00 0.00
20260506123458 8 125 11.3 19.3 0.00 0.00 0.00 93 1017.2
20260506123116 -17 0.0 0.0 0.00 0.00 0.00
20260506122957 8 112 11.3 17.7 0.00 0.00 0.00 92 1017.4
20260506122616 -17 0.0 0.0 0.00 0.00 0.00
20260506122458 8 130 8.0 9.7 0.00 0.00 0.00 92 1017.5
20260506122116 -17 0.0 0.0 0.00 0.00 0.00
20260506121958 8 139 9.7 12.9 0.00 0.00 0.00 92 1017.5
20260506121616 -17 0.0 0.0 0.00 0.00 0.00
20260506121457 8 116 11.3 12.9 0.00 0.00 0.00 92 1017.6
20260506120958 8 134 6.4 8.0 0.00 0.00 0.00 92 1017.6
20260506120616 -17 0.0 0.0 0.00 0.00 0.00
20260506120457 8 124 8.0 12.9 0.00 0.00 0.00 92 1017.5
20260506115958 8 108 9.7 14.5 0.00 0.00 0.00 92 1017.4
20260506115616 -17 0.0 0.0 0.00 0.00 0.00
20260506115116 -17 0.0 0.0 0.00 0.00 0.00
20260506115010 8 103 14.5 17.7 0.00 0.00 0.00 92 1017.1
20260506114616 -17 0.0 0.0 0.00 0.00 0.00
20260506114457 8 104 16.1 17.7 0.00 0.00 0.00 92 1017.0
20260506114116 -17 0.0 0.0 0.00 0.00 0.00
20260506113957 8 106 16.1 19.3 0.00 0.00 0.00 92 1017.0
20260506113617 -17 0.0 0.0 0.00 0.00 0.00
20260506113457 8 104 16.1 22.5 0.00 0.00 0.00 92 1016.9
20260506113116 -17 0.0 0.0 0.00 0.00 0.00
20260506112957 8 104 14.5 20.9 0.00 0.00 0.00 92 1016.8
20260506112617 -17 0.0 0.0 0.00 0.00 0.00
20260506112457 9 99 19.3 24.1 0.00 0.00 0.00 92 1016.7
20260506111958 9 108 16.1 19.3 0.00 0.00 0.00 91 1016.8
20260506111614 -17 0.0 0.0 0.00 0.00 0.00
20260506111457 9 99 14.5 17.7 0.00 0.00 0.00 92 1016.9
20260506111115 -17 0.0 0.0 0.00 0.00 0.00
20260506110957 9 98 17.7 22.5 0.00 0.00 0.00 92 1016.7
20260506110615 -17 0.0 0.0 0.00 0.00 0.00
20260506110457 9 94 20.9 24.1 0.00 0.00 0.00 92 1016.7
20260506105957 9 109 14.5 17.7 0.00 0.00 0.00 92 1016.7
20260506105614 -17 0.0 0.0 0.00 0.00 0.00
20260506105458 9 114 14.5 17.7 0.00 0.00 0.00 92 1016.7
20260506105114 -17 0.0 0.0 0.00 0.00 0.00
20260506104957 9 119 11.3 14.5 0.00 0.00 0.00 92 1016.5
20260506104616 -17 0.0 0.0 0.00 0.00 0.00
20260506104459 9 105 16.1 22.5 0.00 0.00 0.00 92 1016.4
20260506103957 9 119 11.3 14.5 0.00 0.00 0.00 91 1016.6
20260506103615 -17 0.0 0.0 0.00 0.00 0.00
20260506103457 9 100 17.7 22.5 0.00 0.00 0.00 91 1016.4
20260506103115 -17 0.0 0.0 0.00 0.00 0.00
20260506102958 9 104 16.1 22.5 0.00 0.00 0.00 91 1016.4
20260506102615 -17 0.0 0.0 0.00 0.00 0.00
20260506102457 9 103 14.5 17.7 0.00 0.00 0.00 91 1016.4
20260506102111 -17 0.0 0.0 0.00 0.00 0.00
20260506101957 9 101 16.1 24.1 0.00 0.00 0.00 91 1016.2
20260506101609 -17 0.0 0.0 0.00 0.00 0.00
20260506101457 9 107 16.1 20.9 0.00 0.00 0.00 91 1016.2
20260506101108 -17 0.0 0.0 0.00 0.00 0.00
20260506100958 9 101 19.3 22.5 0.00 0.00 0.00 91 1016.2
20260506100609 -17 0.0 0.0 0.00 0.00 0.00
20260506100458 10 106 16.1 19.3 0.00 0.00 0.00 90 1016.2
20260506100109 -17 0.0 0.0 0.00 0.00 0.00
20260506095957 10 103 17.7 24.1 0.00 0.00 0.00 90 1016.1
20260506095457 10 109 16.1 20.9 0.00 0.00 0.00 90 1016.0
20260506095109 -17 0.0 0.0 0.00 0.00 0.00
20260506094957 10 107 16.1 24.1 0.00 0.00 0.00 89 1015.9
20260506094609 -17 0.0 0.0 0.00 0.00 0.00
20260506094457 10 114 14.5 20.9 0.00 0.00 0.00 89 1016.0
20260506094109 -17 0.0 0.0 0.00 0.00 0.00
20260506093957 10 97 17.7 20.9 0.00 0.00 0.00 89 1015.9
20260506093609 -17 0.0 0.0 0.00 0.00 0.00
20260506093458 10 102 17.7 24.1 0.00 0.00 0.00 89 1015.9
20260506093109 -17 0.0 0.0 0.00 0.00 0.00
20260506092958 10 112 14.5 19.3 0.00 0.00 0.00 89 1015.9
20260506092607 -17 0.0 0.0 0.00 0.00 0.00
20260506092457 10 108 16.1 17.7 0.00 0.00 0.00 89 1015.9
20260506091957 10 105 16.1 17.7 0.00 0.00 0.00 89 1015.9
20260506091604 -17 0.0 0.0 0.00 0.00 0.00
20260506091457 10 117 14.5 17.7 0.00 0.00 0.00 89 1015.8
20260506091104 -17 0.0 0.0 0.00 0.00 0.00
20260506090959 10 111 14.5 17.7 0.00 0.00 0.00 88 1015.8
20260506090457 10 118 12.9 17.7 0.00 0.00 0.00 88 1015.7
20260506090103 -17 0.0 0.0 0.00 0.00 0.00
20260506085957 10 105 19.3 24.1 0.00 0.00 0.00 88 1015.8
20260506085604 -17 0.0 0.0 0.00 0.00 0.00
20260506085457 10 107 16.1 20.9 0.00 0.00 0.00 89 1015.7
20260506085104 -17 0.0 0.0 0.00 0.00 0.00
20260506084957 10 109 16.1 20.9 0.00 0.00 0.00 89 1015.7
20260506084604 -17 0.0 0.0 0.00 0.00 0.00
20260506084458 10 110 16.1 19.3 0.00 0.00 0.00 89 1015.7
20260506084104 -17 0.0 0.0 0.00 0.00 0.00
20260506083957 10 106 16.1 20.9 0.00 0.00 0.00 88 1015.7
20260506083604 -17 0.0 0.0 0.00 0.00 0.00
20260506083457 10 110 14.5 20.9 0.00 0.00 0.00 89 1015.8
20260506082957 10 105 19.3 24.1 0.00 0.00 0.00 89 1015.7
20260506082605 -17 0.0 0.0 0.00 0.00 0.00
20260506082457 10 116 14.5 17.7 0.00 0.00 0.00 89 1015.7
20260506082103 -17 0.0 0.0 0.00 0.00 0.00
20260506081957 10 113 14.5 17.7 0.00 0.00 0.00 89 1015.7
20260506081600 -17 0.0 0.0 0.00 0.00 0.00
20260506081457 10 107 16.1 25.7 0.00 0.00 0.00 89 1015.8
20260506080957 10 98 16.1 20.9 0.00 0.00 0.00 89 1015.7
20260506080600 -17 0.0 0.0 0.00 0.00 0.00
20260506080457 10 110 14.5 19.3 0.00 0.00 0.00 89 1015.8
20260506073457 10 122 11.3 16.1 0.00 0.00 0.00 88 1015.4
20260506073101 -17 0.0 0.0 0.00 0.00 0.00
20260506072957 11 116 14.5 16.1 0.00 0.00 0.00 88 1015.4
20260506072559 -17 0.0 0.0 0.00 0.00 0.00
20260506072457 11 111 14.5 17.7 0.00 0.00 0.00 88 1015.4
20260506072100 -17 0.0 0.0 0.00 0.00 0.00
20260506071957 11 117 14.5 20.9 0.00 0.00 0.00 88 1015.4
20260506071558 -17 0.0 0.0 0.00 0.00 0.00
20260506071457 11 119 12.9 16.1 0.00 0.00 0.00 88 1015.4
20260506071058 -17 0.0 0.0 0.00 0.00 0.00
20260506070957 11 123 11.3 14.5 0.00 0.00 0.00 88 1015.4
20260506070559 -17 0.0 0.0 0.00 0.00 0.00
20260506070457 11 117 11.3 14.5 0.00 0.00 0.00 88 1015.4
20260506062459 11 113 14.5 17.7 0.00 0.00 0.00 86 1015.1
20260506062059 -17 0.0 0.0 0.00 0.00 0.00
20260506061958 11 116 14.5 17.7 0.00 0.00 0.00 86 1014.9
20260506061556 -17 0.0 0.0 0.00 0.00 0.00
20260506061457 11 113 14.5 16.1 0.00 0.00 0.00 86 1015.0
20260506060957 11 111 14.5 16.1 0.00 0.00 0.00 86 1015.1
20260506060557 -17 0.0 0.0 0.00 0.00 0.00
20260506060457 11 109 14.5 17.7 0.00 0.00 0.00 86 1015.0
20260506051054 -17 0.0 0.0 0.00 0.00 0.00
20260506050957 12 110 14.5 16.1 0.00 0.00 0.00 85 1015.0
20260506050459 12 112 12.9 16.1 0.00 0.00 0.00 85 1015.0
20260506045054 -17 0.0 0.0 0.00 0.00 0.00
20260506044957 12 113 12.9 16.1 0.00 0.00 0.00 84 1014.9
20260506044555 -17 0.0 0.0 0.00 0.00 0.00
20260506044457 12 110 12.9 16.1 0.00 0.00 0.00 84 1014.8
20260506044055 -17 0.0 0.0 0.00 0.00 0.00
20260506043958 12 113 14.5 16.1 0.00 0.00 0.00 84 1014.7
20260506043554 -17 0.0 0.0 0.00 0.00 0.00
20260506043458 12 113 12.9 17.7 0.00 0.00 0.00 84 1014.7
20260506043055 -17 0.0 0.0 0.00 0.00 0.00
20260506042957 12 111 11.3 14.5 0.00 0.00 0.00 84 1014.7
20260506042555 -17 0.0 0.0 0.00 0.00 0.00
20260506042458 12 107 11.3 14.5 0.00 0.00 0.00 84 1014.6
20260506041957 12 109 11.3 16.1 0.00 0.00 0.00 83 1014.6
20260506041553 -17 0.0 0.0 0.00 0.00 0.00
20260506041457 12 109 11.3 19.3 0.00 0.00 0.00 83 1014.5
20260506041052 -17 0.0 0.0 0.00 0.00 0.00
20260506040957 12 104 12.9 16.1 0.00 0.00 0.00 83 1014.6
20260506040552 -17 0.0 0.0 0.00 0.00 0.00
20260506040457 12 112 11.3 14.5 0.00 0.00 0.00 83 1014.5
20260506040053 -17 0.0 0.0 0.00 0.00 0.00
20260506035957 12 111 9.7 14.5 0.00 0.00 0.00 83 1014.4
20260506035552 -17 0.0 0.0 0.00 0.00 0.00
20260506035457 12 115 11.3 12.9 0.00 0.00 0.00 83 1014.4
20260506035053 -17 0.0 0.0 0.00 0.00 0.00
20260506034958 12 110 12.9 14.5 0.00 0.00 0.00 83 1014.5
20260506034553 -17 0.0 0.0 0.00 0.00 0.00
20260506034458 12 116 8.0 11.3 0.00 0.00 0.00 82 1014.5
20260506034052 -17 0.0 0.0 0.00 0.00 0.00
20260506033958 12 113 8.0 14.5 0.00 0.00 0.00 82 1014.4
20260506033457 12 110 12.9 14.5 0.00 0.00 0.00 82 1014.4
20260506033053 -17 0.0 0.0 0.00 0.00 0.00
20260506032957 12 103 14.5 19.3 0.00 0.00 0.00 82 1014.4
20260506032553 -17 0.0 0.0 0.00 0.00 0.00
20260506032457 12 96 12.9 20.9 0.00 0.00 0.00 82 1014.4
20260506031957 12 109 11.3 14.5 0.00 0.00 0.00 82 1014.5
20260506031550 -17 0.0 0.0 0.00 0.00 0.00
20260506031457 12 103 14.5 20.9 0.00 0.00 0.00 81 1014.4
20260506031050 -17 0.0 0.0 0.00 0.00 0.00
20260506030957 13 114 14.5 19.3 0.00 0.00 0.00 81 1014.3
20260506030457 13 101 14.5 19.3 0.00 0.00 0.00 81 1014.2
20260506030050 -17 0.0 0.0 0.00 0.00 0.00
20260506025957 13 107 12.9 19.3 0.00 0.00 0.00 80 1014.1
20260506025457 13 109 12.9 14.5 0.00 0.00 0.00 80 1014.1
20260506025051 -17 0.0 0.0 0.00 0.00 0.00
20260506024957 13 105 14.5 17.7 0.00 0.00 0.00 80 1014.1
20260506024457 13 110 11.3 14.5 0.00 0.00 0.00 79 1014.2
20260506024051 -17 0.0 0.0 0.00 0.00 0.00
20260506023957 13 103 14.5 17.7 0.00 0.00 0.00 79 1014.0
20260506023552 -17 0.0 0.0 0.00 0.00 0.00
20260506023500 13 110 12.9 16.1 0.00 0.00 0.00 79 1014.1
20260506023051 -17 0.0 0.0 0.00 0.00 0.00
20260506022958 13 117 11.3 14.5 0.00 0.00 0.00 79 1014.1
20260506022553 -17 0.0 0.0 0.00 0.00 0.00
20260506022457 13 107 12.9 14.5 0.00 0.00 0.00 79 1014.1
20260506022051 -17 0.0 0.0 0.00 0.00 0.00
20260506021957 13 107 12.9 16.1 0.00 0.00 0.00 78 1014.2
20260506021549 -17 0.0 0.0 0.00 0.00 0.00
20260506021457 13 115 11.3 14.5 0.00 0.00 0.00 78 1014.3
20260506021048 -17 0.0 0.0 0.00 0.00 0.00
20260506020957 14 114 9.7 12.9 0.00 0.00 0.00 78 1014.3
20260506020549 -17 0.0 0.0 0.00 0.00 0.00
20260506020458 14 112 11.3 14.5 0.00 0.00 0.00 78 1014.2
20260506020048 -17 0.0 0.0 0.00 0.00 0.00
20260506015957 14 112 11.3 14.5 0.00 0.00 0.00 78 1014.2
20260506015459 14 119 9.7 12.9 0.00 0.00 0.00 78 1014.2
20260506015049 -17 0.0 0.0 0.00 0.00 0.00
20260506014957 14 130 8.0 11.3 0.00 0.00 0.00 78 1014.3
20260506014549 -17 0.0 0.0 0.00 0.00 0.00
20260506014457 14 126 9.7 12.9 0.00 0.00 0.00 77 1014.3
20260506014049 -17 0.0 0.0 0.00 0.00 0.00
20260506013957 14 123 8.0 9.7 0.00 0.00 0.00 77 1014.3
20260506013458 14 113 9.7 16.1 0.00 0.00 0.00 78 1014.3
20260506013049 -17 0.0 0.0 0.00 0.00 0.00
20260506012957 14 131 9.7 11.3 0.00 0.00 0.00 77 1014.3
20260506012546 -17 0.0 0.0 0.00 0.00 0.00
20260506012459 14 130 8.0 9.7 0.00 0.00 0.00 78 1014.4
20260506012046 -17 0.0 0.0 0.00 0.00 0.00
20260506011957 14 119 9.7 12.9 0.00 0.00 0.00 78 1014.4
20260506011546 -17 0.0 0.0 0.00 0.00 0.00
20260506011458 14 137 6.4 9.7 0.00 0.00 0.00 78 1014.4
20260506010957 14 120 8.0 11.3 0.00 0.00 0.00 77 1014.4
20260506010458 14 121 9.7 11.3 0.00 0.00 0.00 77 1014.4
20260506010047 -17 0.0 0.0 0.00 0.00 0.00
20260506005958 14 126 8.0 11.3 0.00 0.00 0.00 77 1014.4
20260506005547 -17 0.0 0.0 0.00 0.00 0.00
20260506005457 15 121 9.7 11.3 0.00 0.00 0.00 76 1014.4
20260506004959 15 127 8.0 11.3 0.00 0.00 0.00 77 1014.4
20260506004547 -17 0.0 0.0 0.00 0.00 0.00
20260506004457 15 118 9.7 12.9 0.00 0.00 0.00 75 1014.4
20260506004047 -17 0.0 0.0 0.00 0.00 0.00
20260506003957 15 137 6.4 9.7 0.00 0.00 0.00 77 1014.4
20260506003547 -17 0.0 0.0 0.00 0.00 0.00
20260506003457 15 128 9.7 12.9 0.00 0.00 0.00 75 1014.5
20260506003047 -17 0.0 0.0 0.00 0.00 0.00
20260506002957 15 139 8.0 12.9 0.00 0.00 0.00 75 1014.5
20260506002544 -17 0.0 0.0 0.00 0.00 0.00
20260506002457 15 134 6.4 8.0 0.00 0.00 0.00 76 1014.5
20260506002045 -17 0.0 0.0 0.00 0.00 0.00
20260506001958 15 125 8.0 14.5 0.00 0.00 0.00 75 1014.5
20260506001541 -17 0.0 0.0 0.00 0.00 0.00
20260506001457 15 138 9.7 12.9 0.00 0.00 0.00 74 1014.6
20260506001041 -17 0.0 0.0 0.00 0.00 0.00
20260506000957 15 155 8.0 11.3 0.00 0.00 0.00 75 1014.7
20260506000457 15 149 8.0 12.9 0.00 0.00 0.00 76 1014.7
20260506000042 -17 0.0 0.0 0.00 0.00 0.00
20260505235957 15 143 8.0 9.7 0.00 0.00 0.00 78 1014.7
20260505235457 15 136 8.0 11.3 0.00 0.00 0.00 76 1014.8
20260505235041 -17 0.0 0.0 0.00 0.00 0.00
20260505234957 15 161 8.0 11.3 0.00 0.00 0.00 76 1014.8
20260505234541 -17 0.0 0.0 0.00 0.00 0.00
20260505234457 15 133 8.0 9.7 0.00 0.00 0.00 75 1014.9
20260505234042 -17 0.0 0.0 0.00 0.00 0.00
20260505233957 15 142 8.0 11.3 0.00 0.00 0.00 76 1014.8
20260505233541 -17 0.0 0.0 0.00 0.00 0.00
20260505233458 15 158 9.7 14.5 0.00 0.00 0.00 76 1014.9
20260505233043 -17 0.0 0.0 0.00 0.00 0.00
20260505232958 15 136 8.0 9.7 0.00 0.00 0.00 77 1015.0
20260505232458 15 144 6.4 9.7 0.00 0.00 0.00 78 1015.0
20260505232038 -17 0.0 0.0 0.00 0.00 0.00
20260505231957 15 135 8.0 11.3 0.00 0.00 0.00 78 1015.0
20260505231536 -17 0.0 0.0 0.00 0.00 0.00
20260505231458 15 147 9.7 14.5 0.00 0.00 0.00 78 1015.1
20260505231037 -17 0.0 0.0 0.00 0.00 0.00
20260505230957 15 163 11.3 14.5 0.00 0.00 0.00 77 1015.1
20260505230536 -17 0.0 0.0 0.00 0.00 0.00
20260505230457 15 148 9.7 14.5 0.00 0.00 0.00 78 1015.1
20260505230037 -17 0.0 0.0 0.00 0.00 0.00
20260505225958 15 129 9.7 12.9 0.00 0.00 0.00 78 1015.1
20260505225536 -17 0.0 0.0 0.00 0.00 0.00
20260505225458 15 125 8.0 11.3 0.00 0.00 0.00 78 1015.1
20260505225037 -17 0.0 0.0 0.00 0.00 0.00
20260505224957 15 143 6.4 11.3 0.00 0.00 0.00 79 1015.1
20260505224537 -17 0.0 0.0 0.00 0.00 0.00
20260505224458 15 131 8.0 11.3 0.00 0.00 0.00 77 1015.1
20260505224038 -17 0.0 0.0 0.00 0.00 0.00
20260505223958 15 123 8.0 11.3 0.00 0.00 0.00 77 1015.2
20260505223537 -17 0.0 0.0 0.00 0.00 0.00
20260505223457 14 128 8.0 11.3 0.00 0.00 0.00 79 1015.2
20260505223037 -17 0.0 0.0 0.00 0.00 0.00
20260505222957 14 116 9.7 14.5 0.00 0.00 0.00 79 1015.2
20260505222457 14 146 9.7 14.5 0.00 0.00 0.00 80 1015.3
20260505222034 -17 0.0 0.0 0.00 0.00 0.00
20260505221958 14 126 9.7 14.5 0.00 0.00 0.00 78 1015.3
20260505221532 -17 0.0 0.0 0.00 0.00 0.00
20260505221457 14 131 8.0 12.9 0.00 0.00 0.00 79 1015.3
20260505221031 -17 0.0 0.0 0.00 0.00 0.00
20260505220957 14 138 8.0 11.3 0.00 0.00 0.00 80 1015.4
20260505220531 -17 0.0 0.0 0.00 0.00 0.00
20260505220504 14 127 8.0 11.3 0.00 0.00 0.00 79 1015.3
20260505215957 14 149 11.3 14.5 0.00 0.00 0.00 81 1015.4
20260505215532 -17 0.0 0.0 0.00 0.00 0.00
20260505215457 14 144 9.7 12.9 0.00 0.00 0.00 80 1015.4
20260505214957 15 131 8.0 14.5 0.00 0.00 0.00 79 1015.4
20260505214532 -17 0.0 0.0 0.00 0.00 0.00
20260505214457 14 124 6.4 11.3 0.00 0.00 0.00 80 1015.4
20260505214032 -17 0.0 0.0 0.00 0.00 0.00
20260505213957 14 127 8.0 12.9 0.00 0.00 0.00 80 1015.5
20260505213537 -17 0.0 0.0 0.00 0.00 0.00
20260505213458 13 130 8.0 11.3 0.00 0.00 0.00 81 1015.5
20260505213032 -17 0.0 0.0 0.00 0.00 0.00
20260505212958 14 128 8.0 11.3 0.00 0.00 0.00 81 1015.5
20260505212457 13 147 9.7 14.5 0.00 0.00 0.00 82 1015.6
20260505212030 -17 0.0 0.0 0.00 0.00 0.00
20260505211957 13 144 6.4 9.7 0.00 0.00 0.00 82 1015.6
20260505211528 -17 0.0 0.0 0.00 0.00 0.00
20260505211457 13 116 8.0 12.9 0.00 0.00 0.00 82 1015.6
20260505211028 -17 0.0 0.0 0.00 0.00 0.00
20260505210957 13 114 9.7 16.1 0.00 0.00 0.00 83 1015.5
20260505210527 -17 0.0 0.0 0.00 0.00 0.00
20260505210458 13 131 6.4 9.7 0.00 0.00 0.00 83 1015.6
20260505210028 -17 0.0 0.0 0.00 0.00 0.00
20260505205958 13 132 9.7 14.5 0.00 0.00 0.00 82 1015.6
20260505205528 -17 0.0 0.0 0.00 0.00 0.00
20260505205457 13 149 8.0 12.9 0.00 0.00 0.00 84 1015.7
20260505205028 -17 0.0 0.0 0.00 0.00 0.00
20260505204957 12 143 8.0 12.9 0.00 0.00 0.00 85 1015.7
20260505204529 -17 0.0 0.0 0.00 0.00 0.00
20260505204457 12 128 6.4 9.7 0.00 0.00 0.00 86 1015.8
20260505204028 -17 0.0 0.0 0.00 0.00 0.00
20260505203957 12 124 8.0 9.7 0.00 0.00 0.00 86 1015.9
20260505203528 -17 0.0 0.0 0.00 0.00 0.00
20260505203457 12 130 8.0 12.9 0.00 0.00 0.00 87 1015.9
20260505203027 -17 0.0 0.0 0.00 0.00 0.00
20260505202957 12 144 9.7 12.9 0.00 0.00 0.00 85 1015.8
20260505202458 12 130 6.4 9.7 0.00 0.00 0.00 87 1015.8
20260505201957 12 139 6.4 8.0 0.00 0.00 0.00 87 1015.8
20260505201524 -17 0.0 0.0 0.00 0.00 0.00
20260505201458 12 131 9.7 14.5 0.00 0.00 0.00 87 1015.7
20260505201024 -17 0.0 0.0 0.00 0.00 0.00
20260505200957 12 132 6.4 9.7 0.00 0.00 0.00 87 1015.7
20260505200524 -17 0.0 0.0 0.00 0.00 0.00
20260505200458 12 142 6.4 9.7 0.00 0.00 0.00 88 1015.7
20260505200025 -17 0.0 0.0 0.00 0.00 0.00
20260505195957 11 124 8.0 9.7 0.00 0.00 0.00 88 1015.7
20260505195525 -17 0.0 0.0 0.00 0.00 0.00
20260505195458 11 128 8.0 12.9 0.00 0.00 0.00 89 1015.7
20260505194958 11 124 6.4 9.7 0.00 0.00 0.00 90 1015.7
20260505194525 -17 0.0 0.0 0.00 0.00 0.00
20260505194457 11 125 6.4 9.7 0.00 0.00 0.00 90 1015.8
20260505193957 11 124 8.0 11.3 0.00 0.00 0.00 90 1015.8
20260505193525 -17 0.0 0.0 0.00 0.00 0.00
20260505193459 11 125 6.4 6.4 0.00 0.00 0.00 92 1015.8
20260505193026 -17 0.0 0.0 0.00 0.00 0.00
20260505193002 11 119 6.4 8.0 0.00 0.00 0.00 91 1015.8
20260505192458 11 123 8.0 11.3 0.00 0.00 0.00 92 1015.8
20260505192022 -17 0.0 0.0 0.00 0.00 0.00
20260505191957 11 127 8.0 9.7 0.00 0.00 0.00 93 1015.8
20260505191519 -17 0.0 0.0 0.00 0.00 0.00
20260505191458 11 123 8.0 11.3 0.00 0.00 0.00 93 1015.7
20260505190957 11 118 9.7 14.5 0.00 0.00 0.00 93 1015.7
20260505190519 -17 0.0 0.0 0.00 0.00 0.00
20260505190458 11 126 6.4 9.7 0.00 0.00 0.00 93 1015.7
20260505185957 10 124 6.4 8.0 0.00 0.00 0.00 94 1015.7
20260505185518 -17 0.0 0.0 0.00 0.00 0.00
20260505185458 11 129 6.4 9.7 0.00 0.00 0.00 94 1015.7
20260505185019 -17 0.0 0.0 0.00 0.00 0.00
20260505184957 11 115 9.7 12.9 0.00 0.00 0.00 93 1015.7
20260505184518 -17 0.0 0.0 0.00 0.00 0.00
20260505184458 10 131 6.4 11.3 0.00 0.00 0.00 94 1015.7
20260505184019 -17 0.0 0.0 0.00 0.00 0.00
20260505184000 10 118 6.4 9.7 0.00 0.00 0.00 94 1015.7
20260505183518 -17 0.0 0.0 0.00 0.00 0.00
20260505183457 10 106 11.3 12.9 0.00 0.00 0.00 94 1015.7
20260505183019 -17 0.0 0.0 0.00 0.00 0.00
20260505182957 10 116 9.7 12.9 0.00 0.00 0.00 94 1015.7
20260505182517 -17 0.0 0.0 0.00 0.00 0.00
20260505182458 10 124 8.0 9.7 0.00 0.00 0.00 94 1015.7
20260505182018 -17 0.0 0.0 0.00 0.00 0.00
20260505181958 10 125 9.7 11.3 0.00 0.00 0.00 93 1015.6
20260505181518 -17 0.0 0.0 0.00 0.00 0.00
20260505181457 10 129 6.4 9.7 0.00 0.00 0.00 94 1015.5
20260505181018 -17 0.0 0.0 0.00 0.00 0.00
20260505180957 10 134 6.4 9.7 0.00 0.00 0.00 94 1015.5
20260505180518 -17 0.0 0.0 0.00 0.00 0.00
20260505180501 10 122 8.0 12.9 0.00 0.00 0.00 94 1015.5
20260505180017 -17 0.0 0.0 0.00 0.00 0.00
20260505175958 10 114 9.7 12.9 0.00 0.00 0.00 94 1015.5
20260505175518 -17 0.0 0.0 0.00 0.00 0.00
20260505175457 10 125 6.4 8.0 0.00 0.00 0.00 95 1015.6
20260505175017 -17 0.0 0.0 0.00 0.00 0.00
20260505174957 10 131 8.0 12.9 0.00 0.00 0.00 95 1015.6
20260505174518 -17 0.0 0.0 0.00 0.00 0.00
20260505174458 10 129 8.0 9.7 0.00 0.00 0.00 95 1015.5
20260505174018 -17 0.0 0.0 0.00 0.00 0.00
20260505173957 10 126 6.4 8.0 0.00 0.00 0.00 95 1015.5
20260505173518 -17 0.0 0.0 0.00 0.00 0.00
20260505173457 10 119 6.4 11.3 0.00 0.00 0.00 95 1015.5
20260505173018 -17 0.0 0.0 0.00 0.00 0.00
20260505172958 10 115 8.0 9.7 0.00 0.00 0.00 95 1015.4
20260505172518 -17 0.0 0.0 0.00 0.00 0.00
20260505172457 10 109 11.3 12.9 0.00 0.00 0.00 95 1015.4
20260505172015 -17 0.0 0.0 0.00 0.00 0.00
20260505171957 10 108 8.0 11.3 0.00 0.00 0.00 96 1015.2
20260505171517 -17 0.0 0.0 0.00 0.00 0.00
20260505171458 10 114 9.7 11.3 0.00 0.00 0.00 96 1015.2
20260505170958 10 123 8.0 11.3 0.00 0.00 0.00 96 1015.3
20260505170516 -17 0.0 0.0 0.00 0.00 0.00
20260505170457 10 112 8.0 11.3 0.00 0.00 0.00 96 1015.2
20260505170017 -17 0.0 0.0 0.00 0.00 0.00
20260505165957 10 113 9.7 11.3 0.00 0.00 0.00 96 1015.2
20260505165458 10 118 8.0 9.7 0.00 0.00 0.00 96 1015.2
20260505165014 -17 0.0 0.0 0.00 0.00 0.00
20260505164957 10 121 8.0 9.7 0.00 0.00 0.00 96 1015.2
20260505164514 -17 0.0 0.0 0.00 0.00 0.00
20260505164459 10 131 6.4 8.0 0.00 0.00 0.00 97 1015.2
20260505164015 -17 0.0 0.0 0.00 0.00 0.00
20260505163958 10 140 8.0 11.3 0.00 0.00 0.00 97 1015.2
20260505163515 -17 0.0 0.0 0.00 0.00 0.00
20260505163458 9 131 4.8 6.4 0.00 0.00 0.00 97 1015.3
20260505163014 -17 0.0 0.0 0.00 0.00 0.00
20260505162958 9 121 8.0 9.7 0.00 0.00 0.00 97 1015.3
20260505162510 -17 0.0 0.0 0.00 0.00 0.00
20260505162457 9 126 8.0 9.7 0.00 0.00 0.00 97 1015.2
20260505162009 -17 0.0 0.0 0.00 0.00 0.00
20260505161958 9 116 8.0 11.3 0.00 0.00 0.00 97 1015.2
20260505161505 -17 0.0 0.0 0.00 0.00 0.00
20260505161459 9 126 6.4 8.0 0.00 0.00 0.00 97 1015.2
20260505161005 -17 0.0 0.0 0.00 0.00 0.00
20260505160529 9 125 6.4 9.7 0.00 0.00 0.00 97 1015.2
20260505160504 -17 0.0 0.0 0.00 0.00 0.00
20260505153006 -17 0.0 0.0 0.00 0.00 0.00
20260505152958 9 116 9.7 11.3 0.00 0.00 0.00 97 1014.9
20260505152459 -17 0.0 0.0 0.00 0.00 0.00
20260505152457 9 119 9.7 11.3 0.00 0.00 0.00 97 1014.9
20260505152000 9 113 11.3 12.9 0.00 0.00 0.00 97 1014.8
20260505151953 -17 0.0 0.0 0.00 0.00 0.00
20260505151458 9 112 11.3 14.5 0.00 0.00 0.00 97 1014.7
20260505151447 -17 0.0 0.0 0.00 0.00 0.00
20260505150958 9 114 11.3 12.9 0.00 0.00 0.00 96 1014.7
20260505150948 -17 0.0 0.0 0.00 0.00 0.00
20260505150458 9 114 9.7 11.3 0.00 0.00 0.00 96 1014.7
20260505150447 -17 0.0 0.0 0.00 0.00 0.00
20260505140458 9 112 12.9 16.1 0.00 0.00 0.00 94 1013.9
20260505140443 -17 0.0 0.0 0.00 0.00 0.00